TimeEDT,TemperatureF,Dew PointF,Humidity,Sea Level PressureIn,VisibilityMPH,Wind Direction,Wind SpeedMPH,Gust SpeedMPH,PrecipitationIn,Events,Conditions,WindDirDegrees,DateUTC
12:48 AM,59.0,53.6,82,29.80,10.0,SSW,11.5,-,0.00,,Overcast,200,2013-04-01 04:48:00
12:56 AM,59.0,54.0,83,29.81,10.0,SSW,9.2,-,0.00,Rain,Light Rain,210,2013-04-01 04:56:00
1:10 AM,59.0,53.6,82,29.80,10.0,SSW,9.2,-,0.00,,Overcast,210,2013-04-01 05:10:00
1:49 AM,59.0,53.6,82,29.81,10.0,SW,10.4,-,0.00,Rain,Light Rain,220,2013-04-01 05:49:00
1:56 AM,57.9,53.1,84,29.82,10.0,SW,11.5,-,0.00,Rain,Light Rain,220,2013-04-01 05:56:00
2:14 AM,57.2,53.6,88,29.81,10.0,SW,10.4,-,0.00,,Overcast,220,2013-04-01 06:14:00
2:56 AM,57.9,53.1,84,29.81,10.0,SSW,8.1,-,0.00,,Overcast,210,2013-04-01 06:56:00
3:56 AM,55.0,51.1,86,29.80,10.0,WSW,5.8,-,N/A,,Mostly Cloudy,240,2013-04-01 07:56:00
4:56 AM,53.1,51.1,93,29.80,10.0,WSW,3.5,-,N/A,,Overcast,250,2013-04-01 08:56:00
5:56 AM,55.0,52.0,89,29.81,10.0,SW,6.9,-,N/A,,Overcast,230,2013-04-01 09:56:00
6:42 AM,53.6,51.8,94,29.81,10.0,WSW,6.9,-,0.00,Rain,Light Rain,240,2013-04-01 10:42:00
6:56 AM,55.0,52.0,89,29.82,10.0,WSW,6.9,-,0.00,,Overcast,250,2013-04-01 10:56:00
7:56 AM,55.9,52.0,87,29.84,10.0,WSW,6.9,-,N/A,,Mostly Cloudy,240,2013-04-01 11:56:00
8:56 AM,57.0,53.1,87,29.84,10.0,West,8.1,-,N/A,,Mostly Cloudy,270,2013-04-01 12:56:00
9:56 AM,57.9,51.1,78,29.84,10.0,West,8.1,-,N/A,,Mostly Cloudy,270,2013-04-01 13:56:00
10:56 AM,62.1,45.0,53,29.82,10.0,NW,9.2,-,N/A,,Mostly Cloudy,310,2013-04-01 14:56:00
11:56 AM,63.0,41.0,45,29.83,10.0,West,8.1,-,N/A,,Mostly Cloudy,280,2013-04-01 15:56:00
12:56 PM,66.9,37.9,34,29.82,10.0,West,11.5,17.3,N/A,,Scattered Clouds,280,2013-04-01 16:56:00
1:56 PM,69.1,36.0,30,29.79,10.0,West,9.2,18.4,N/A,,Scattered Clouds,280,2013-04-01 17:56:00
2:56 PM,70.0,34.0,27,29.76,10.0,NW,9.2,-,N/A,,Scattered Clouds,310,2013-04-01 18:56:00
3:56 PM,71.1,39.9,32,29.75,10.0,WSW,13.8,24.2,N/A,,Scattered Clouds,250,2013-04-01 19:56:00
4:56 PM,70.0,39.0,32,29.75,10.0,West,15.0,23.0,N/A,,Scattered Clouds,280,2013-04-01 20:56:00
5:56 PM,70.0,37.9,31,29.75,10.0,West,15.0,20.7,N/A,,Scattered Clouds,270,2013-04-01 21:56:00
6:56 PM,69.1,37.0,31,29.77,10.0,West,11.5,19.6,N/A,,Mostly Cloudy,280,2013-04-01 22:56:00
7:56 PM,66.0,39.0,37,29.81,10.0,NW,13.8,23.0,N/A,,Mostly Cloudy,310,2013-04-01 23:56:00
8:56 PM,57.9,41.0,53,29.86,10.0,NNE,20.7,26.5,N/A,,Mostly Cloudy,20,2013-04-02 00:56:00
9:03 PM,57.2,41.0,55,29.86,10.0,North,16.1,26.5,N/A,,Mostly Cloudy,10,2013-04-02 01:03:00
9:56 PM,53.1,39.9,61,29.90,10.0,North,15.0,-,N/A,,Scattered Clouds,10,2013-04-02 01:56:00
10:56 PM,52.0,36.0,54,29.94,10.0,North,12.7,25.3,N/A,,Partly Cloudy,360,2013-04-02 02:56:00
11:56 PM,50.0,35.1,57,29.96,10.0,North,13.8,-,N/A,,Partly Cloudy,10,2013-04-02 03:56:00